owner,sensor,date,latitude,longitude,sea_water_turbidity,qcFlag 
SCCF RECON,ioos:station:SCCF:12:1,2011-02-01T00:00:00Z,26.4966,-82.1479,7.39,1111122 
SCCF RECON,ioos:station:SCCF:12:1,2011-02-01T01:00:00Z,26.4966,-82.1479,9.19,1111122 
SCCF RECON,ioos:station:SCCF:12:1,2011-02-01T02:00:00Z,26.4966,-82.1479,9.17,1111122 
SCCF RECON,ioos:station:SCCF:12:1,2011-02-01T03:00:00Z,26.4966,-82.1479,8.72,1111122 
SCCF RECON,ioos:station:SCCF:12:1,2011-02-01T04:00:00Z,26.4966,-82.1479,6.53,1111122 
SCCF RECON,ioos:station:SCCF:12:1,2011-02-01T05:00:00Z,26.4966,-82.1479,7.24,1111122 
SCCF RECON,ioos:station:SCCF:12:1,2011-02-01T06:00:00Z,26.4966,-82.1479,6.81,1111122 
SCCF RECON,ioos:station:SCCF:12:1,2011-02-01T07:00:00Z,26.4966,-82.1479,6.52,1111122 
SCCF RECON,ioos:station:SCCF:12:1,2011-02-01T08:00:00Z,26.4966,-82.1479,6.12,1111122 
SCCF RECON,ioos:station:SCCF:12:1,2011-02-01T09:00:00Z,26.4966,-82.1479,5.89,1111122 
SCCF RECON,ioos:station:SCCF:12:1,2011-02-01T10:00:00Z,26.4966,-82.1479,5.18,1111122 
SCCF RECON,ioos:station:SCCF:12:1,2011-02-01T11:00:00Z,26.4966,-82.1479,6.18,1111122 
SCCF RECON,ioos:station:SCCF:12:1,2011-02-01T12:00:00Z,26.4966,-82.1479,5.37,1111122 
SCCF RECON,ioos:station:SCCF:12:1,2011-02-01T13:00:00Z,26.4966,-82.1479,7.64,1111122 
SCCF RECON,ioos:station:SCCF:12:1,2011-02-01T14:00:00Z,26.4966,-82.1479,8.78,1111122 
SCCF RECON,ioos:station:SCCF:12:1,2011-02-01T15:00:00Z,26.4966,-82.1479,6.67,1111122 
SCCF RECON,ioos:station:SCCF:12:1,2011-02-01T16:00:00Z,26.4966,-82.1479,7.15,1111122 
SCCF RECON,ioos:station:SCCF:12:1,2011-02-01T17:00:00Z,26.4966,-82.1479,8.15,1111122 
SCCF RECON,ioos:station:SCCF:12:1,2011-02-01T18:00:00Z,26.4966,-82.1479,8.67,1111122 
SCCF RECON,ioos:station:SCCF:12:1,2011-02-01T19:00:00Z,26.4966,-82.1479,9.47,1111122 
SCCF RECON,ioos:station:SCCF:12:1,2011-02-01T20:00:00Z,26.4966,-82.1479,9.75,1111122 
SCCF RECON,ioos:station:SCCF:12:1,2011-02-01T21:00:00Z,26.4966,-82.1479,9.85,1111122 
SCCF RECON,ioos:station:SCCF:12:1,2011-02-01T22:00:00Z,26.4966,-82.1479,9.78,1111122 
SCCF RECON,ioos:station:SCCF:12:1,2011-02-01T23:00:00Z,26.4966,-82.1479,9.62,1111122 
SCCF RECON,ioos:station:SCCF:12:1,2011-02-02T00:00:00Z,26.4966,-82.1479,9.69,1111122 
SCCF RECON,ioos:station:SCCF:12:1,2011-02-02T01:00:00Z,26.4966,-82.1479,8.71,1111122 
SCCF RECON,ioos:station:SCCF:12:1,2011-02-02T02:00:00Z,26.4966,-82.1479,8.58,1111122 
SCCF RECON,ioos:station:SCCF:12:1,2011-02-02T03:00:00Z,26.4966,-82.1479,8.67,1111122 
SCCF RECON,ioos:station:SCCF:12:1,2011-02-02T04:00:00Z,26.4966,-82.1479,8.6,1111122 
SCCF RECON,ioos:station:SCCF:12:1,2011-02-02T05:00:00Z,26.4966,-82.1479,8.3,1111122 
SCCF RECON,ioos:station:SCCF:12:1,2011-02-02T06:00:00Z,26.4966,-82.1479,7.15,1111122 
SCCF RECON,ioos:station:SCCF:12:1,2011-02-02T07:00:00Z,26.4966,-82.1479,7.06,1111122 
SCCF RECON,ioos:station:SCCF:12:1,2011-02-02T08:00:00Z,26.4966,-82.1479,8.41,1111122 
SCCF RECON,ioos:station:SCCF:12:1,2011-02-02T09:00:00Z,26.4966,-82.1479,8.32,1111122 
SCCF RECON,ioos:station:SCCF:12:1,2011-02-02T10:00:00Z,26.4966,-82.1479,8.16,1111122 
SCCF RECON,ioos:station:SCCF:12:1,2011-02-02T11:00:00Z,26.4966,-82.1479,8.36,1111122 
SCCF RECON,ioos:station:SCCF:12:1,2011-02-02T12:00:00Z,26.4966,-82.1479,8.58,1111122 
SCCF RECON,ioos:station:SCCF:12:1,2011-02-02T13:00:00Z,26.4966,-82.1479,7.29,1111122 
SCCF RECON,ioos:station:SCCF:12:1,2011-02-02T14:00:00Z,26.4966,-82.1479,8.74,1111122 
SCCF RECON,ioos:station:SCCF:12:1,2011-02-02T15:00:00Z,26.4966,-82.1479,7.46,1111122 
SCCF RECON,ioos:station:SCCF:12:1,2011-02-02T16:00:00Z,26.4966,-82.1479,9.03,1111122 
SCCF RECON,ioos:station:SCCF:12:1,2011-02-02T17:00:00Z,26.4966,-82.1479,10.91,1111122 
SCCF RECON,ioos:station:SCCF:12:1,2011-02-02T18:00:00Z,26.4966,-82.1479,9.28,1111122 
SCCF RECON,ioos:station:SCCF:12:1,2011-02-02T19:00:00Z,26.4966,-82.1479,9.9,1111122 
SCCF RECON,ioos:station:SCCF:12:1,2011-02-02T20:00:00Z,26.4966,-82.1479,9.05,1111122 
SCCF RECON,ioos:station:SCCF:12:1,2011-02-02T21:00:00Z,26.4966,-82.1479,8.94,1111122 
SCCF RECON,ioos:station:SCCF:12:1,2011-02-02T22:00:00Z,26.4966,-82.1479,8.72,1111122 
SCCF RECON,ioos:station:SCCF:12:1,2011-02-02T23:00:00Z,26.4966,-82.1479,7.73,1111122 
SCCF RECON,ioos:station:SCCF:12:1,2011-02-03T00:00:00Z,26.4966,-82.1479,7.12,1111122 
SCCF RECON,ioos:station:SCCF:12:1,2011-02-03T01:00:00Z,26.4966,-82.1479,7.14,1111122 
SCCF RECON,ioos:station:SCCF:12:1,2011-02-03T02:00:00Z,26.4966,-82.1479,8.3,1111122 
SCCF RECON,ioos:station:SCCF:12:1,2011-02-03T03:00:00Z,26.4966,-82.1479,8.38,1111122 
SCCF RECON,ioos:station:SCCF:12:1,2011-02-03T04:00:00Z,26.4966,-82.1479,8.95,1111122 
SCCF RECON,ioos:station:SCCF:12:1,2011-02-03T05:00:00Z,26.4966,-82.1479,11.12,1111122 
SCCF RECON,ioos:station:SCCF:12:1,2011-02-03T06:00:00Z,26.4966,-82.1479,7.24,1111122 
SCCF RECON,ioos:station:SCCF:12:1,2011-02-03T07:00:00Z,26.4966,-82.1479,9.48,1111122 
SCCF RECON,ioos:station:SCCF:12:1,2011-02-03T08:00:00Z,26.4966,-82.1479,8.01,1111122 
SCCF RECON,ioos:station:SCCF:12:1,2011-02-03T09:00:00Z,26.4966,-82.1479,7.38,1111122 
SCCF RECON,ioos:station:SCCF:12:1,2011-02-03T10:00:00Z,26.4966,-82.1479,6.55,1111122 
SCCF RECON,ioos:station:SCCF:12:1,2011-02-03T11:00:00Z,26.4966,-82.1479,6.5,1111122 
SCCF RECON,ioos:station:SCCF:12:1,2011-02-03T12:00:00Z,26.4966,-82.1479,6.32,1111122 
SCCF RECON,ioos:station:SCCF:12:1,2011-02-03T13:00:00Z,26.4966,-82.1479,8.14,1111122 
SCCF RECON,ioos:station:SCCF:12:1,2011-02-03T14:00:00Z,26.4966,-82.1479,10.06,1111122 
SCCF RECON,ioos:station:SCCF:12:1,2011-02-03T15:00:00Z,26.4966,-82.1479,8.89,1111122 
SCCF RECON,ioos:station:SCCF:12:1,2011-02-03T16:00:00Z,26.4966,-82.1479,9.39,1111122 
SCCF RECON,ioos:station:SCCF:12:1,2011-02-03T17:00:00Z,26.4966,-82.1479,9.45,1111122 
SCCF RECON,ioos:station:SCCF:12:1,2011-02-03T18:00:00Z,26.4966,-82.1479,11.57,1111122 
SCCF RECON,ioos:station:SCCF:12:1,2011-02-03T19:00:00Z,26.4966,-82.1479,7.97,1111122 
SCCF RECON,ioos:station:SCCF:12:1,2011-02-03T20:00:00Z,26.4966,-82.1479,13.17,1111122 
SCCF RECON,ioos:station:SCCF:12:1,2011-02-03T21:00:00Z,26.4966,-82.1479,10.27,1111122 
SCCF RECON,ioos:station:SCCF:12:1,2011-02-03T22:00:00Z,26.4966,-82.1479,7.18,1111122 
SCCF RECON,ioos:station:SCCF:12:1,2011-02-03T23:00:00Z,26.4966,-82.1479,6.21,1111122 
SCCF RECON,ioos:station:SCCF:12:1,2011-02-04T00:00:00Z,26.4966,-82.1479,6.42,1111122 
SCCF RECON,ioos:station:SCCF:12:1,2011-02-04T01:00:00Z,26.4966,-82.1479,6.46,1111122 
SCCF RECON,ioos:station:SCCF:12:1,2011-02-04T02:00:00Z,26.4966,-82.1479,8.28,1111122 
SCCF RECON,ioos:station:SCCF:12:1,2011-02-04T03:00:00Z,26.4966,-82.1479,8.8,1111122 
SCCF RECON,ioos:station:SCCF:12:1,2011-02-04T04:00:00Z,26.4966,-82.1479,8.64,1111122 
SCCF RECON,ioos:station:SCCF:12:1,2011-02-04T05:00:00Z,26.4966,-82.1479,8.75,1111122 
SCCF RECON,ioos:station:SCCF:12:1,2011-02-04T06:00:00Z,26.4966,-82.1479,7.32,1111122 
SCCF RECON,ioos:station:SCCF:12:1,2011-02-04T07:00:00Z,26.4966,-82.1479,6.94,1111122 
SCCF RECON,ioos:station:SCCF:12:1,2011-02-04T08:00:00Z,26.4966,-82.1479,7.79,1111122 
SCCF RECON,ioos:station:SCCF:12:1,2011-02-04T09:00:00Z,26.4966,-82.1479,6.89,1111122 
SCCF RECON,ioos:station:SCCF:12:1,2011-02-04T10:00:00Z,26.4966,-82.1479,5.84,1111122 
SCCF RECON,ioos:station:SCCF:12:1,2011-02-04T11:00:00Z,26.4966,-82.1479,5.93,1111122 
SCCF RECON,ioos:station:SCCF:12:1,2011-02-04T12:00:00Z,26.4966,-82.1479,5.99,1111122 
SCCF RECON,ioos:station:SCCF:12:1,2011-02-04T13:00:00Z,26.4966,-82.1479,6.14,1111122 
SCCF RECON,ioos:station:SCCF:12:1,2011-02-04T14:00:00Z,26.4966,-82.1479,7.71,1111122 
SCCF RECON,ioos:station:SCCF:12:1,2011-02-04T15:00:00Z,26.4966,-82.1479,9.73,1111122 
SCCF RECON,ioos:station:SCCF:12:1,2011-02-04T16:00:00Z,26.4966,-82.1479,9.35,1111122 
SCCF RECON,ioos:station:SCCF:12:1,2011-02-04T17:00:00Z,26.4966,-82.1479,8.53,1111122 
SCCF RECON,ioos:station:SCCF:12:1,2011-02-04T18:00:00Z,26.4966,-82.1479,8.83,1111122 
SCCF RECON,ioos:station:SCCF:12:1,2011-02-04T19:00:00Z,26.4966,-82.1479,9.94,1111122 
SCCF RECON,ioos:station:SCCF:12:1,2011-02-04T20:00:00Z,26.4966,-82.1479,10.35,1111122 
SCCF RECON,ioos:station:SCCF:12:1,2011-02-04T21:00:00Z,26.4966,-82.1479,9.01,1111122 
SCCF RECON,ioos:station:SCCF:12:1,2011-02-04T22:00:00Z,26.4966,-82.1479,9.39,1111122 
SCCF RECON,ioos:station:SCCF:12:1,2011-02-04T23:00:00Z,26.4966,-82.1479,10.09,1111122 
SCCF RECON,ioos:station:SCCF:12:1,2011-02-05T00:00:00Z,26.4966,-82.1479,11.3,1111122 
SCCF RECON,ioos:station:SCCF:12:1,2011-02-05T01:00:00Z,26.4966,-82.1479,9.86,1111122 
SCCF RECON,ioos:station:SCCF:12:1,2011-02-05T02:00:00Z,26.4966,-82.1479,9.38,1111122 
SCCF RECON,ioos:station:SCCF:12:1,2011-02-05T03:00:00Z,26.4966,-82.1479,9.81,1111122 
SCCF RECON,ioos:station:SCCF:12:1,2011-02-05T04:00:00Z,26.4966,-82.1479,9.94,1111122 
SCCF RECON,ioos:station:SCCF:12:1,2011-02-05T05:00:00Z,26.4966,-82.1479,9.33,1111122 
SCCF RECON,ioos:station:SCCF:12:1,2011-02-05T06:00:00Z,26.4966,-82.1479,9.04,1111122 
SCCF RECON,ioos:station:SCCF:12:1,2011-02-05T07:00:00Z,26.4966,-82.1479,9.8,1111122 
SCCF RECON,ioos:station:SCCF:12:1,2011-02-05T08:00:00Z,26.4966,-82.1479,9.77,1111122 
SCCF RECON,ioos:station:SCCF:12:1,2011-02-05T09:00:00Z,26.4966,-82.1479,8.63,1111122 
SCCF RECON,ioos:station:SCCF:12:1,2011-02-05T10:00:00Z,26.4966,-82.1479,8.23,1111122 
SCCF RECON,ioos:station:SCCF:12:1,2011-02-05T11:00:00Z,26.4966,-82.1479,8.21,1111122 
SCCF RECON,ioos:station:SCCF:12:1,2011-02-05T12:00:00Z,26.4966,-82.1479,7.21,1111122 
SCCF RECON,ioos:station:SCCF:12:1,2011-02-05T13:00:00Z,26.4966,-82.1479,7.2,1111122 
SCCF RECON,ioos:station:SCCF:12:1,2011-02-05T14:00:00Z,26.4966,-82.1479,9.77,1111122 
SCCF RECON,ioos:station:SCCF:12:1,2011-02-05T15:00:00Z,26.4966,-82.1479,8.52,1111122 
SCCF RECON,ioos:station:SCCF:12:1,2011-02-05T16:00:00Z,26.4966,-82.1479,11.23,1111122 
SCCF RECON,ioos:station:SCCF:12:1,2011-02-05T17:00:00Z,26.4966,-82.1479,9.89,1111122 
SCCF RECON,ioos:station:SCCF:12:1,2011-02-05T18:00:00Z,26.4966,-82.1479,10.37,1111122 
SCCF RECON,ioos:station:SCCF:12:1,2011-02-05T19:00:00Z,26.4966,-82.1479,8.78,1111122 
SCCF RECON,ioos:station:SCCF:12:1,2011-02-05T20:00:00Z,26.4966,-82.1479,10.75,1111122 
SCCF RECON,ioos:station:SCCF:12:1,2011-02-05T21:00:00Z,26.4966,-82.1479,10.32,1111122 
SCCF RECON,ioos:station:SCCF:12:1,2011-02-05T22:00:00Z,26.4966,-82.1479,10.11,1111122 
SCCF RECON,ioos:station:SCCF:12:1,2011-02-05T23:00:00Z,26.4966,-82.1479,8.99,1111122 
SCCF RECON,ioos:station:SCCF:12:1,2011-02-06T00:00:00Z,26.4966,-82.1479,8.52,1111122 
SCCF RECON,ioos:station:SCCF:12:1,2011-02-06T01:00:00Z,26.4966,-82.1479,8.76,1111122 
SCCF RECON,ioos:station:SCCF:12:1,2011-02-06T02:00:00Z,26.4966,-82.1479,8.18,1111122 
SCCF RECON,ioos:station:SCCF:12:1,2011-02-06T03:00:00Z,26.4966,-82.1479,9.8,1111122 
SCCF RECON,ioos:station:SCCF:12:1,2011-02-06T04:00:00Z,26.4966,-82.1479,10.7,1111122 
SCCF RECON,ioos:station:SCCF:12:1,2011-02-06T05:00:00Z,26.4966,-82.1479,9.99,1111122 
SCCF RECON,ioos:station:SCCF:12:1,2011-02-06T06:00:00Z,26.4966,-82.1479,9.7,1111122 
SCCF RECON,ioos:station:SCCF:12:1,2011-02-06T07:00:00Z,26.4966,-82.1479,8.5,1111122 
SCCF RECON,ioos:station:SCCF:12:1,2011-02-06T08:00:00Z,26.4966,-82.1479,8.36,1111122 
SCCF RECON,ioos:station:SCCF:12:1,2011-02-06T09:00:00Z,26.4966,-82.1479,8.82,1111122 
SCCF RECON,ioos:station:SCCF:12:1,2011-02-06T10:00:00Z,26.4966,-82.1479,8.53,1111122 
SCCF RECON,ioos:station:SCCF:12:1,2011-02-06T11:00:00Z,26.4966,-82.1479,7.39,1111122 
SCCF RECON,ioos:station:SCCF:12:1,2011-02-06T12:00:00Z,26.4966,-82.1479,7.83,1111122 
SCCF RECON,ioos:station:SCCF:12:1,2011-02-06T13:00:00Z,26.4966,-82.1479,7.69,1111122 
SCCF RECON,ioos:station:SCCF:12:1,2011-02-06T14:00:00Z,26.4966,-82.1479,10.08,1111122 
SCCF RECON,ioos:station:SCCF:12:1,2011-02-06T15:00:00Z,26.4966,-82.1479,10.42,1111122 
SCCF RECON,ioos:station:SCCF:12:1,2011-02-06T16:00:00Z,26.4966,-82.1479,11.23,1111122 
SCCF RECON,ioos:station:SCCF:12:1,2011-02-06T17:00:00Z,26.4966,-82.1479,14.18,1111122 
SCCF RECON,ioos:station:SCCF:12:1,2011-02-06T18:00:00Z,26.4966,-82.1479,10.79,1111122 
SCCF RECON,ioos:station:SCCF:12:1,2011-02-06T19:00:00Z,26.4966,-82.1479,9.4,1111122 
SCCF RECON,ioos:station:SCCF:12:1,2011-02-06T20:00:00Z,26.4966,-82.1479,10.67,1111122 
SCCF RECON,ioos:station:SCCF:12:1,2011-02-06T21:00:00Z,26.4966,-82.1479,10.82,1111122 
SCCF RECON,ioos:station:SCCF:12:1,2011-02-06T22:00:00Z,26.4966,-82.1479,10.19,1111122 
SCCF RECON,ioos:station:SCCF:12:1,2011-02-06T23:00:00Z,26.4966,-82.1479,12.8,1111122 
SCCF RECON,ioos:station:SCCF:12:1,2011-02-07T00:00:00Z,26.4966,-82.1479,8.62,1111122 
SCCF RECON,ioos:station:SCCF:12:1,2011-02-07T01:00:00Z,26.4966,-82.1479,8.43,1111122 
SCCF RECON,ioos:station:SCCF:12:1,2011-02-07T02:00:00Z,26.4966,-82.1479,8.62,1111122 
SCCF RECON,ioos:station:SCCF:12:1,2011-02-07T03:00:00Z,26.4966,-82.1479,8.98,1111122 
SCCF RECON,ioos:station:SCCF:12:1,2011-02-07T04:00:00Z,26.4966,-82.1479,9.34,1111122 
SCCF RECON,ioos:station:SCCF:12:1,2011-02-07T05:00:00Z,26.4966,-82.1479,9.39,1111122 
SCCF RECON,ioos:station:SCCF:12:1,2011-02-07T06:00:00Z,26.4966,-82.1479,9.69,1111122 
SCCF RECON,ioos:station:SCCF:12:1,2011-02-07T07:00:00Z,26.4966,-82.1479,8.88,1111122 
SCCF RECON,ioos:station:SCCF:12:1,2011-02-07T08:00:00Z,26.4966,-82.1479,8.87,1111122 
SCCF RECON,ioos:station:SCCF:12:1,2011-02-07T09:00:00Z,26.4966,-82.1479,8.55,1111122 
SCCF RECON,ioos:station:SCCF:12:1,2011-02-07T10:00:00Z,26.4966,-82.1479,8.45,1111122 
SCCF RECON,ioos:station:SCCF:12:1,2011-02-07T11:00:00Z,26.4966,-82.1479,7.7,1111122 
SCCF RECON,ioos:station:SCCF:12:1,2011-02-07T12:00:00Z,26.4966,-82.1479,7.54,1111122 
SCCF RECON,ioos:station:SCCF:12:1,2011-02-07T13:00:00Z,26.4966,-82.1479,7.44,1111122 
SCCF RECON,ioos:station:SCCF:12:1,2011-02-07T14:00:00Z,26.4966,-82.1479,7.52,1111122 
SCCF RECON,ioos:station:SCCF:12:1,2011-02-07T15:00:00Z,26.4966,-82.1479,9.31,1111122 
SCCF RECON,ioos:station:SCCF:12:1,2011-02-07T16:00:00Z,26.4966,-82.1479,9.23,1111122 
SCCF RECON,ioos:station:SCCF:12:1,2011-02-07T17:00:00Z,26.4966,-82.1479,9.56,1111122 
SCCF RECON,ioos:station:SCCF:12:1,2011-02-07T18:00:00Z,26.4966,-82.1479,10.22,1111122 
SCCF RECON,ioos:station:SCCF:12:1,2011-02-07T19:00:00Z,26.4966,-82.1479,10.51,1111122 
SCCF RECON,ioos:station:SCCF:12:1,2011-02-07T20:00:00Z,26.4966,-82.1479,11.8,1111122 
SCCF RECON,ioos:station:SCCF:12:1,2011-02-07T21:00:00Z,26.4966,-82.1479,11.13,1111122 
SCCF RECON,ioos:station:SCCF:12:1,2011-02-07T22:00:00Z,26.4966,-82.1479,9.32,1111122 
SCCF RECON,ioos:station:SCCF:12:1,2011-02-07T23:00:00Z,26.4966,-82.1479,8.69,1111122 
SCCF RECON,ioos:station:SCCF:12:1,2011-02-08T00:00:00Z,26.4966,-82.1479,8.52,1111122 
SCCF RECON,ioos:station:SCCF:12:1,2011-02-08T01:00:00Z,26.4966,-82.1479,8.84,1111122 
SCCF RECON,ioos:station:SCCF:12:1,2011-02-08T02:00:00Z,26.4966,-82.1479,8.76,1111122 
SCCF RECON,ioos:station:SCCF:12:1,2011-02-08T03:00:00Z,26.4966,-82.1479,9.47,1111122 
SCCF RECON,ioos:station:SCCF:12:1,2011-02-08T04:00:00Z,26.4966,-82.1479,9.26,1111122 
SCCF RECON,ioos:station:SCCF:12:1,2011-02-08T05:00:00Z,26.4966,-82.1479,10.72,1111122 
SCCF RECON,ioos:station:SCCF:12:1,2011-02-08T06:00:00Z,26.4966,-82.1479,11.45,1111122 
SCCF RECON,ioos:station:SCCF:12:1,2011-02-08T07:00:00Z,26.4966,-82.1479,10.26,1111122 
SCCF RECON,ioos:station:SCCF:12:1,2011-02-08T08:00:00Z,26.4966,-82.1479,10.53,1111122 
SCCF RECON,ioos:station:SCCF:12:1,2011-02-08T09:00:00Z,26.4966,-82.1479,10.63,1111122 
SCCF RECON,ioos:station:SCCF:12:1,2011-02-08T10:00:00Z,26.4966,-82.1479,10.99,1111122 
SCCF RECON,ioos:station:SCCF:12:1,2011-02-08T11:00:00Z,26.4966,-82.1479,10.94,1111122 
SCCF RECON,ioos:station:SCCF:12:1,2011-02-08T12:00:00Z,26.4966,-82.1479,10.78,1111122 
SCCF RECON,ioos:station:SCCF:12:1,2011-02-08T13:00:00Z,26.4966,-82.1479,10.86,1111122 
SCCF RECON,ioos:station:SCCF:12:1,2011-02-08T14:00:00Z,26.4966,-82.1479,10.3,1111122 
SCCF RECON,ioos:station:SCCF:12:1,2011-02-08T15:00:00Z,26.4966,-82.1479,10.83,1111122 
SCCF RECON,ioos:station:SCCF:12:1,2011-02-08T16:00:00Z,26.4966,-82.1479,12.02,1111122 
SCCF RECON,ioos:station:SCCF:12:1,2011-02-08T17:00:00Z,26.4966,-82.1479,13.33,1111122 
SCCF RECON,ioos:station:SCCF:12:1,2011-02-08T18:00:00Z,26.4966,-82.1479,13.37,1111122 
SCCF RECON,ioos:station:SCCF:12:1,2011-02-08T19:00:00Z,26.4966,-82.1479,10.49,1111122 
SCCF RECON,ioos:station:SCCF:12:1,2011-02-08T20:00:00Z,26.4966,-82.1479,10.87,1111122 
SCCF RECON,ioos:station:SCCF:12:1,2011-02-08T21:00:00Z,26.4966,-82.1479,9.91,1111122 
SCCF RECON,ioos:station:SCCF:12:1,2011-02-08T22:00:00Z,26.4966,-82.1479,9.39,1111122 
SCCF RECON,ioos:station:SCCF:12:1,2011-02-08T23:00:00Z,26.4966,-82.1479,8.45,1111122 
SCCF RECON,ioos:station:SCCF:12:1,2011-02-09T00:00:00Z,26.4966,-82.1479,10.11,1111122 
SCCF RECON,ioos:station:SCCF:12:1,2011-02-09T01:00:00Z,26.4966,-82.1479,8.03,1111122 
SCCF RECON,ioos:station:SCCF:12:1,2011-02-09T02:00:00Z,26.4966,-82.1479,8.34,1111122 
SCCF RECON,ioos:station:SCCF:12:1,2011-02-09T03:00:00Z,26.4966,-82.1479,10.41,1111122 
SCCF RECON,ioos:station:SCCF:12:1,2011-02-09T04:00:00Z,26.4966,-82.1479,9.76,1111122 
SCCF RECON,ioos:station:SCCF:12:1,2011-02-09T05:00:00Z,26.4966,-82.1479,10.44,1111122 
SCCF RECON,ioos:station:SCCF:12:1,2011-02-09T06:00:00Z,26.4966,-82.1479,10.95,1111122 
SCCF RECON,ioos:station:SCCF:12:1,2011-02-09T07:00:00Z,26.4966,-82.1479,10.93,1111122 
SCCF RECON,ioos:station:SCCF:12:1,2011-02-09T08:00:00Z,26.4966,-82.1479,9.63,1111122 
SCCF RECON,ioos:station:SCCF:12:1,2011-02-09T09:00:00Z,26.4966,-82.1479,9.0,1111122 
SCCF RECON,ioos:station:SCCF:12:1,2011-02-09T10:00:00Z,26.4966,-82.1479,8.97,1111122 
SCCF RECON,ioos:station:SCCF:12:1,2011-02-09T11:00:00Z,26.4966,-82.1479,9.08,1111122 
SCCF RECON,ioos:station:SCCF:12:1,2011-02-09T12:00:00Z,26.4966,-82.1479,9.83,1111122 
SCCF RECON,ioos:station:SCCF:12:1,2011-02-09T13:00:00Z,26.4966,-82.1479,10.55,1111122 
SCCF RECON,ioos:station:SCCF:12:1,2011-02-09T14:00:00Z,26.4966,-82.1479,10.0,1111122 
SCCF RECON,ioos:station:SCCF:12:1,2011-02-09T15:00:00Z,26.4966,-82.1479,9.22,1111122 
SCCF RECON,ioos:station:SCCF:12:1,2011-02-09T16:00:00Z,26.4966,-82.1479,10.16,1111122 
SCCF RECON,ioos:station:SCCF:12:1,2011-02-09T17:00:00Z,26.4966,-82.1479,10.97,1111122 
SCCF RECON,ioos:station:SCCF:12:1,2011-02-09T18:00:00Z,26.4966,-82.1479,8.33,1111122 
SCCF RECON,ioos:station:SCCF:12:1,2011-02-09T19:00:00Z,26.4966,-82.1479,11.18,1111122 
SCCF RECON,ioos:station:SCCF:12:1,2011-02-09T20:00:00Z,26.4966,-82.1479,8.72,1111122 
SCCF RECON,ioos:station:SCCF:12:1,2011-02-09T21:00:00Z,26.4966,-82.1479,8.69,1111122 
SCCF RECON,ioos:station:SCCF:12:1,2011-02-09T22:00:00Z,26.4966,-82.1479,6.43,1111122 
SCCF RECON,ioos:station:SCCF:12:1,2011-02-09T23:00:00Z,26.4966,-82.1479,5.84,1111122 
SCCF RECON,ioos:station:SCCF:12:1,2011-02-10T00:00:00Z,26.4966,-82.1479,7.11,1111122 
SCCF RECON,ioos:station:SCCF:12:1,2011-02-10T01:00:00Z,26.4966,-82.1479,7.14,1111122 
SCCF RECON,ioos:station:SCCF:12:1,2011-02-10T02:00:00Z,26.4966,-82.1479,7.29,1111122 
SCCF RECON,ioos:station:SCCF:12:1,2011-02-10T03:00:00Z,26.4966,-82.1479,6.67,1111122 
SCCF RECON,ioos:station:SCCF:12:1,2011-02-10T04:00:00Z,26.4966,-82.1479,6.27,1111122 
SCCF RECON,ioos:station:SCCF:12:1,2011-02-10T05:00:00Z,26.4966,-82.1479,5.72,1111122 
SCCF RECON,ioos:station:SCCF:12:1,2011-02-10T06:00:00Z,26.4966,-82.1479,8.13,1111122 
SCCF RECON,ioos:station:SCCF:12:1,2011-02-10T07:00:00Z,26.4966,-82.1479,6.98,1111122 
SCCF RECON,ioos:station:SCCF:12:1,2011-02-10T08:00:00Z,26.4966,-82.1479,6.66,1111122 
SCCF RECON,ioos:station:SCCF:12:1,2011-02-10T09:00:00Z,26.4966,-82.1479,6.65,1111122 
SCCF RECON,ioos:station:SCCF:12:1,2011-02-10T10:00:00Z,26.4966,-82.1479,6.28,1111122 
SCCF RECON,ioos:station:SCCF:12:1,2011-02-10T11:00:00Z,26.4966,-82.1479,5.74,1111122 
SCCF RECON,ioos:station:SCCF:12:1,2011-02-10T12:00:00Z,26.4966,-82.1479,7.26,1111122 
SCCF RECON,ioos:station:SCCF:12:1,2011-02-10T13:00:00Z,26.4966,-82.1479,7.35,1111122 
SCCF RECON,ioos:station:SCCF:12:1,2011-02-10T14:00:00Z,26.4966,-82.1479,8.13,1111122 
SCCF RECON,ioos:station:SCCF:12:1,2011-02-10T15:00:00Z,26.4966,-82.1479,8.11,1111122 
SCCF RECON,ioos:station:SCCF:12:1,2011-02-10T16:00:00Z,26.4966,-82.1479,6.57,1111122 
SCCF RECON,ioos:station:SCCF:12:1,2011-02-10T17:00:00Z,26.4966,-82.1479,7.77,1111122 
SCCF RECON,ioos:station:SCCF:12:1,2011-02-10T18:00:00Z,26.4966,-82.1479,6.44,1111122 
SCCF RECON,ioos:station:SCCF:12:1,2011-02-10T19:00:00Z,26.4966,-82.1479,6.89,1111122 
SCCF RECON,ioos:station:SCCF:12:1,2011-02-10T20:00:00Z,26.4966,-82.1479,7.12,1111122 
SCCF RECON,ioos:station:SCCF:12:1,2011-02-10T21:00:00Z,26.4966,-82.1479,8.5,1111122 
SCCF RECON,ioos:station:SCCF:12:1,2011-02-10T22:00:00Z,26.4966,-82.1479,7.51,1111122 
SCCF RECON,ioos:station:SCCF:12:1,2011-02-10T23:00:00Z,26.4966,-82.1479,7.43,1111122 
SCCF RECON,ioos:station:SCCF:12:1,2011-02-11T00:00:00Z,26.4966,-82.1479,7.49,1111122 
SCCF RECON,ioos:station:SCCF:12:1,2011-02-11T01:00:00Z,26.4966,-82.1479,7.58,1111122 
SCCF RECON,ioos:station:SCCF:12:1,2011-02-11T02:00:00Z,26.4966,-82.1479,9.61,1111122 
SCCF RECON,ioos:station:SCCF:12:1,2011-02-11T03:00:00Z,26.4966,-82.1479,6.45,1111122 
SCCF RECON,ioos:station:SCCF:12:1,2011-02-11T04:00:00Z,26.4966,-82.1479,6.17,1111122 
SCCF RECON,ioos:station:SCCF:12:1,2011-02-11T05:00:00Z,26.4966,-82.1479,5.92,1111122 
SCCF RECON,ioos:station:SCCF:12:1,2011-02-11T06:00:00Z,26.4966,-82.1479,6.31,1111122 
SCCF RECON,ioos:station:SCCF:12:1,2011-02-11T07:00:00Z,26.4966,-82.1479,8.1,1111122 
SCCF RECON,ioos:station:SCCF:12:1,2011-02-11T08:00:00Z,26.4966,-82.1479,6.56,1111122 
SCCF RECON,ioos:station:SCCF:12:1,2011-02-11T09:00:00Z,26.4966,-82.1479,6.69,1111122 
SCCF RECON,ioos:station:SCCF:12:1,2011-02-11T10:00:00Z,26.4966,-82.1479,6.67,1111122 
SCCF RECON,ioos:station:SCCF:12:1,2011-02-11T11:00:00Z,26.4966,-82.1479,6.47,1111122 
SCCF RECON,ioos:station:SCCF:12:1,2011-02-11T12:00:00Z,26.4966,-82.1479,6.47,1111122 
SCCF RECON,ioos:station:SCCF:12:1,2011-02-11T13:00:00Z,26.4966,-82.1479,7.46,1111122 
SCCF RECON,ioos:station:SCCF:12:1,2011-02-11T14:00:00Z,26.4966,-82.1479,7.37,1111122 
SCCF RECON,ioos:station:SCCF:12:1,2011-02-11T15:00:00Z,26.4966,-82.1479,7.37,1111122 
SCCF RECON,ioos:station:SCCF:12:1,2011-02-11T16:00:00Z,26.4966,-82.1479,7.36,1111122 
SCCF RECON,ioos:station:SCCF:12:1,2011-02-11T17:00:00Z,26.4966,-82.1479,7.91,1111122 
SCCF RECON,ioos:station:SCCF:12:1,2011-02-11T18:00:00Z,26.4966,-82.1479,8.26,1111122 
SCCF RECON,ioos:station:SCCF:12:1,2011-02-11T19:00:00Z,26.4966,-82.1479,8.46,1111122 
SCCF RECON,ioos:station:SCCF:12:1,2011-02-11T20:00:00Z,26.4966,-82.1479,9.98,1111122 
SCCF RECON,ioos:station:SCCF:12:1,2011-02-11T21:00:00Z,26.4966,-82.1479,10.53,1111122 
SCCF RECON,ioos:station:SCCF:12:1,2011-02-11T22:00:00Z,26.4966,-82.1479,8.29,1111122 
SCCF RECON,ioos:station:SCCF:12:1,2011-02-11T23:00:00Z,26.4966,-82.1479,9.74,1111122 
SCCF RECON,ioos:station:SCCF:12:1,2011-02-12T00:00:00Z,26.4966,-82.1479,10.47,1111122 
SCCF RECON,ioos:station:SCCF:12:1,2011-02-12T01:00:00Z,26.4966,-82.1479,11.72,1111122 
SCCF RECON,ioos:station:SCCF:12:1,2011-02-12T02:00:00Z,26.4966,-82.1479,10.42,1111122 
SCCF RECON,ioos:station:SCCF:12:1,2011-02-12T03:00:00Z,26.4966,-82.1479,10.34,1111122 
SCCF RECON,ioos:station:SCCF:12:1,2011-02-12T04:00:00Z,26.4966,-82.1479,10.16,1111122 
SCCF RECON,ioos:station:SCCF:12:1,2011-02-12T05:00:00Z,26.4966,-82.1479,9.97,1111122 
SCCF RECON,ioos:station:SCCF:12:1,2011-02-12T06:00:00Z,26.4966,-82.1479,9.59,1111122 
SCCF RECON,ioos:station:SCCF:12:1,2011-02-12T07:00:00Z,26.4966,-82.1479,10.04,1111122 
SCCF RECON,ioos:station:SCCF:12:1,2011-02-12T08:00:00Z,26.4966,-82.1479,11.0,1111122 
SCCF RECON,ioos:station:SCCF:12:1,2011-02-12T09:00:00Z,26.4966,-82.1479,10.53,1111122 
SCCF RECON,ioos:station:SCCF:12:1,2011-02-12T10:00:00Z,26.4966,-82.1479,10.9,1111122 
SCCF RECON,ioos:station:SCCF:12:1,2011-02-12T11:00:00Z,26.4966,-82.1479,11.61,1111122 
SCCF RECON,ioos:station:SCCF:12:1,2011-02-12T12:00:00Z,26.4966,-82.1479,10.65,1111122 